Temp
13 13 15 15 14 11 14 16 20 19 20 22 21 21 19 18 19 18 16 17 18 17 17 17 17 17 16 15 15 16 17 17 16 15 15 15 16 16 15 17 17 17 17 17 17 16 16 15 14
13 13 14 15 13 12 14 17 20 17 22 20 20 19 18 18 18 17 16 17 18 17 16 17 17 16 16 15 14 15 16 17 16 16 16 16 16 16 16 17 18 17 17 17 16 16 16 15 14
12 13 14 11 11 15 15 18 18 21 22 20 19 19 19 18 18 16 17 17 17 17 16 17 16 16 15 14 14 15 15 17 17 17 17 17 17 17 18 18 18 17 17 17 16 16 16 15 13
11 13 13 12 12 15 17 19 20 20 22 21 20 17 18 18 18 18 17 17 18 17 16 16 16 16 15 15 15 16 15 16 17 18 18 18 18 18 18 18 18 18 18 17 16 16 15 15 15
11 12 12 11 13 16 17 20 20 20 21 22 22 17 18 19 19 19 17 17 18 17 16 16 16 15 15 16 16 16 15 16 17 18 18 18 18 19 19 18 18 18 18 17 17 16 16 16 16
11 12 11 11 13 16 18 21 21 20 20 19 20 19 17 18 18 17 17 16 17 17 16 16 16 15 15 16 17 16 15 15 16 18 18 18 18 19 19 19 18 18 18 17 17 16 16 16 16
10 11 12 12 13 17 19 21 19 18 18 18 19 18 16 18 18 17 17 17 17 16 16 16 16 15 16 17 17 16 16 15 16 17 17 18 18 18 19 18 18 18 18 18 17 17 17 16 16
11 12 12 13 14 17 18 19 19 18 17 18 19 16 15 18 16 17 16 17 17 16 16 16 16 15 16 16 17 17 16 15 15 16 17 17 17 18 18 18 18 18 18 18 17 17 17 16 16
11 11 11 14 16 17 17 18 18 18 18 17 17 18 18 18 17 17 16 17 16 16 16 16 15 15 16 16 17 17 16 16 15 17 17 17 17 18 18 18 18 18 18 18 17 17 17 16 16
10 11 12 13 15 16 17 18 18 17 16 14 16 17 17 17 17 17 16 16 15 15 16 16 16 16 16 16 17 17 17 17 17 17 17 17 17 17 17 17 17 17 17 17 17 17 16 16 16
10 11 12 11 12 15 17 17 18 16 16 15 16 18 17 17 18 18 17 16 16 16 16 16 16 16 16 16 17 17 17 17 17 17 17 17 17 17 17 17 17 17 17 17 17 17 16 16 16
10 11 12 10 11 13 14 17 15 17 17 18 17 18 17 17 18 18 18 17 16 16 16 16 16 16 16 16 17 17 17 17 17 17 17 17 17 16 16 17 17 17 17 17 16 16 16 16 16
10 10 10 10 12 12 14 13 14 15 17 17 16 17 17 17 16 18 18 18 17 17 16 16 16 16 16 16 16 16 17 17 17 17 17 16 16 16 16 16 16 16 16 16 15 15 16 15 15
9 8 9 10 10 12 14 13 15 15 16 16 15 16 16 17 16 16 17 17 17 17 17 16 16 16 16 17 16 16 16 16 16 16 16 16 16 16 15 15 16 15 16 15 15 15 15 15 15
9 9 9 10 10 11 11 14 13 15 15 15 16 15 15 16 16 16 16 16 16 16 16 17 17 16 16 16 16 16 16 16 16 16 16 15 15 15 15 15 15 15 15 15 15 15 15 14 14
9 9 8 9 10 10 12 13 13 14 13 15 16 16 15 15 16 16 16 16 16 16 16 16 16 16 16 16 16 15 15 16 16 15 15 15 15 15 15 15 15 14 14 14 14 14 14 14 14
10 8 9 10 10 10 11 11 13 14 13 14 16 16 16 16 16 16 17 16 16 16 16 16 16 16 16 16 16 16 15 16 16 16 15 15 15 14 14 14 14 14 14 14 14 14 14 14 14
9 8 9 10 9 10 10 11 11 13 12 14 15 16 16 16 17 17 16 16 17 16 16 16 16 16 15 15 15 15 16 16 15 15 15 15 15 15 14 14 14 14 13 13 13 13 13 13 13
11 10 11 11 11 11 11 10 11 11 12 14 15 15 16 16 17 17 17 17 16 16 16 16 16 16 15 15 15 15 16 16 15 15 15 15 15 15 15 14 14 13 13 13 13 13 13 13 13
11 11 10 11 11 11 11 11 12 11 12 13 15 16 16 16 17 17 17 16 17 17 16 16 16 16 16 15 14 14 15 15 15 15 15 15 15 15 15 14 14 14 13 13 13 13 13 13 13
11 10 10 11 11 11 10 11 11 12 14 14 15 16 17 17 17 17 17 17 17 17 17 17 17 16 16 16 16 15 15 14 15 15 15 15 14 15 14 15 14 15 14 13 13 13 13 13 12
11 12 12 11 10 9 10 9 10 10 13 13 14 16 16 17 18 17 17 17 17 17 17 17 17 17 17 16 16 16 16 16 15 15 15 14 14 14 14 14 15 14 15 15 14 13 12 12 11
11 12 11 10 10 10 9 10 9 10 10 12 12 15 17 17 17 17 17 17 17 17 16 16 16 16 16 16 16 16 16 16 15 15 15 14 14 14 14 14 15 15 15 14 15 14 13 12 11
12 10 10 9 7 8 9 10 9 9 11 13 13 14 16 17 17 17 17 17 16 16 16 15 15 15 15 15 15 15 16 16 15 15 14 14 14 15 14 14 14 14 14 14 15 14 14 13 12
10 8 8 8 8 8 8 8 10 11 10 12 12 14 16 17 17 17 17 17 17 16 16 16 15 15 15 16 16 15 15 15 15 15 15 15 15 14 14 14 14 14 14 15 15 14 13 13 12
8 7 7 8 7 8 8 8 10 11 13 14 15 15 16 16 17 17 17 17 16 16 16 15 15 15 15 15 15 15 15 15 15 15 14 14 14 14 13 13 13 14 14 14 14 13 12 12 12
8 7 9 7 6 5 8 9 11 11 13 12 13 14 14 15 16 17 17 16 16 16 16 16 15 15 15 14 14 14 14 15 15 14 14 13 13 12 12 13 14 13 13 13 13 12 11 11 11
8 9 8 6 7 8 7 8 10 12 10 11 10 12 14 15 15 16 16 16 16 16 15 15 15 14 14 14 14 13 13 12 12 12 13 13 12 12 12 13 13 12 12 12 11 11 11 10 10
7 7 8 8 8 7 8 8 8 10 10 9 9 12 13 13 14 14 14 14 14 14 14 14 14 14 14 14 14 13 12 12 12 11 12 12 12 12 11 11 11 12 11 11 11 10 9 9 9
7 8 9 7 7 5 5 8 10 10 9 9 10 12 12 13 13 13 13 13 13 13 13 13 13 13 13 13 13 13 12 12 12 12 11 11 11 11 11 11 11 10 11 11 10 9 9 8 8
Height
1507 1510 1512 1515 1523 1524 1521 1511 1496 1501 1502 1501 1501 1499 1504 1510 1513 1524 1515 1519 1524 1528 1533 1536 1541 1543 1544 1545 1546 1547 1548 1549 1551 1552 1554 1555 1556 1558 1558 1559 1560 1561 1562 1563 1564 1564 1565 1566 1567
1504 1507 1510 1510 1520 1530 1518 1500 1495 1504 1501 1502 1500 1500 1505 1512 1512 1514 1519 1522 1525 1529 1533 1537 1541 1543 1545 1546 1547 1548 1550 1551 1553 1554 1555 1557 1558 1559 1560 1560 1561 1562 1564 1565 1566 1567 1568 1569 1569
1499 1504 1505 1508 1516 1514 1512 1495 1494 1493 1503 1502 1501 1503 1504 1506 1513 1515 1520 1522 1526 1530 1534 1538 1541 1544 1546 1547 1548 1549 1551 1552 1553 1555 1556 1558 1559 1560 1561 1562 1563 1565 1566 1567 1569 1570 1571 1571 1572
1497 1502 1502 1504 1508 1500 1496 1490 1489 1492 1501 1503 1496 1503 1508 1506 1513 1517 1522 1523 1526 1530 1535 1538 1542 1544 1547 1548 1549 1551 1552 1554 1554 1556 1557 1559 1560 1561 1563 1564 1566 1567 1568 1570 1571 1572 1573 1574 1574
1493 1494 1498 1502 1499 1493 1489 1485 1486 1492 1498 1502 1496 1507 1507 1510 1513 1519 1523 1525 1526 1530 1536 1539 1542 1545 1547 1548 1550 1552 1554 1555 1556 1557 1559 1561 1562 1563 1565 1566 1568 1569 1570 1572 1573 1574 1574 1575 1576
1490 1486 1497 1501 1496 1491 1486 1484 1485 1489 1492 1497 1500 1504 1511 1510 1514 1521 1523 1525 1528 1531 1536 1540 1543 1545 1547 1549 1551 1552 1555 1557 1558 1559 1561 1564 1565 1566 1567 1569 1570 1572 1573 1574 1574 1575 1576 1577 1577
1479 1482 1490 1492 1493 1490 1485 1484 1485 1491 1493 1494 1495 1501 1512 1514 1518 1522 1526 1529 1530 1533 1535 1540 1543 1545 1547 1549 1551 1553 1556 1559 1560 1561 1563 1565 1567 1568 1570 1571 1572 1574 1574 1575 1576 1577 1578 1578 1578
1478 1478 1485 1485 1489 1487 1480 1484 1487 1491 1493 1494 1494 1499 1509 1507 1522 1521 1527 1530 1532 1535 1537 1538 1541 1545 1546 1549 1551 1554 1557 1559 1561 1562 1565 1567 1569 1570 1572 1573 1574 1575 1576 1576 1577 1577 1578 1579 1579
1478 1482 1487 1484 1482 1480 1478 1480 1489 1490 1493 1493 1496 1498 1502 1507 1517 1527 1528 1528 1533 1535 1537 1539 1541 1544 1546 1550 1552 1554 1557 1560 1562 1564 1566 1569 1570 1571 1573 1574 1575 1576 1577 1577 1578 1579 1579 1579 1579
1475 1478 1478 1479 1476 1476 1477 1478 1485 1491 1493 1494 1496 1498 1502 1507 1512 1522 1523 1526 1531 1533 1535 1539 1542 1543 1546 1550 1553 1555 1558 1561 1563 1565 1566 1569 1571 1572 1574 1574 1575 1576 1577 1578 1578 1579 1579 1579 1579
1474 1479 1477 1482 1480 1476 1479 1482 1485 1489 1495 1493 1495 1498 1504 1508 1512 1516 1521 1526 1532 1531 1535 1539 1542 1544 1547 1550 1553 1555 1558 1561 1563 1565 1566 1568 1570 1572 1574 1575 1575 1576 1577 1578 1578 1578 1578 1579 1579
1477 1477 1476 1483 1480 1480 1483 1484 1488 1488 1492 1494 1497 1499 1502 1508 1508 1514 1522 1525 1529 1531 1535 1537 1541 1544 1547 1551 1553 1556 1558 1560 1562 1564 1566 1568 1570 1572 1573 1574 1575 1576 1576 1577 1578 1578 1578 1578 1579
1479 1477 1481 1485 1479 1483 1486 1487 1488 1490 1493 1497 1499 1502 1503 1508 1511 1513 1520 1525 1527 1530 1534 1536 1539 1543 1546 1550 1553 1555 1557 1559 1562 1563 1565 1567 1569 1571 1572 1573 1575 1575 1576 1577 1577 1578 1578 1578 1578
1483 1485 1485 1487 1488 1490 1492 1491 1488 1495 1495 1497 1500 1502 1505 1508 1513 1515 1518 1517 1524 1528 1532 1535 1537 1541 1544 1548 1551 1554 1556 1559 1561 1563 1564 1566 1567 1569 1570 1572 1574 1575 1575 1576 1576 1577 1577 1577 1577
1488 1487 1489 1493 1495 1496 1494 1493 1497 1497 1499 1500 1500 1503 1507 1508 1512 1514 1515 1519 1523 1527 1531 1534 1537 1540 1543 1547 1550 1552 1554 1557 1559 1562 1564 1564 1566 1567 1569 1571 1572 1573 1574 1574 1575 1575 1576 1576 1576
1484 1495 1503 1502 1500 1502 1493 1498 1497 1499 1502 1503 1503 1504 1507 1508 1511 1514 1516 1520 1523 1527 1530 1533 1535 1538 1542 1545 1548 1551 1554 1556 1557 1559 1562 1563 1565 1567 1568 1569 1570 1572 1573 1574 1574 1575 1575 1575 1575
1494 1503 1501 1501 1501 1499 1500 1504 1499 1500 1504 1505 1505 1506 1507 1508 1510 1513 1515 1518 1520 1524 1528 1531 1534 1536 1539 1543 1546 1547 1551 1555 1557 1558 1560 1563 1565 1566 1567 1568 1569 1570 1572 1572 1573 1573 1574 1574 1574
1495 1502 1502 1502 1506 1506 1506 1505 1503 1502 1505 1506 1506 1505 1506 1507 1508 1511 1514 1517 1519 1523 1527 1529 1531 1534 1538 1542 1545 1546 1547 1554 1555 1556 1559 1561 1563 1564 1564 1566 1567 1568 1570 1571 1572 1572 1572 1572 1572
1487 1493 1495 1497 1503 1504 1503 1507 1506 1509 1505 1503 1504 1504 1505 1506 1509 1510 1511 1513 1516 1520 1523 1526 1529 1531 1534 1536 1539 1542 1543 1549 1551 1553 1555 1558 1560 1561 1562 1563 1565 1567 1567 1569 1570 1570 1570 1570 1569
1488 1490 1493 1493 1492 1497 1496 1500 1501 1506 1503 1499 1498 1499 1501 1502 1504 1506 1509 1511 1513 1516 1519 1522 1526 1528 1530 1533 1535 1537 1541 1544 1547 1549 1550 1552 1555 1556 1558 1561 1563 1565 1565 1567 1567 1568 1567 1566 1566
1486 1487 1489 1488 1486 1496 1500 1504 1505 1500 1498 1496 1495 1494 1495 1497 1500 1502 1505 1508 1511 1513 1516 1518 1521 1524 1525 1528 1530 1533 1535 1539 1540 1542 1545 1548 1550 1552 1553 1553 1557 1558 1560 1561 1563 1564 1563 1563 1562
1488 1481 1482 1487 1490 1503 1498 1511 1496 1495 1492 1492 1489 1489 1490 1492 1495 1497 1499 1501 1504 1508 1511 1514 1517 1519 1521 1523 1527 1528 1529 1531 1534 1538 1541 1544 1547 1548 1550 1550 1552 1554 1554 1555 1557 1558 1559 1558 1557
1485 1482 1482 1487 1494 1496 1503 1507 1494 1487 1489 1483 1483 1484 1485 1487 1490 1491 1493 1496 1500 1505 1508 1510 1513 1515 1518 1520 1523 1526 1528 1530 1532 1533 1536 1538 1541 1543 1547 1549 1549 1550 1551 1551 1550 1553 1553 1552 1551
1482 1486 1489 1496 1504 1509 1497 1497 1493 1487 1478 1476 1474 1473 1476 1480 1484 1486 1489 1493 1496 1500 1504 1507 1510 1511 1513 1516 1518 1522 1524 1525 1527 1529 1530 1532 1536 1539 1542 1544 1546 1546 1547 1546 1545 1547 1547 1546 1545
1486 1496 1505 1508 1505 1501 1497 1503 1485 1473 1471 1470 1467 1465 1468 1472 1476 1480 1484 1488 1492 1495 1498 1502 1505 1507 1509 1512 1515 1517 1520 1522 1524 1525 1528 1529 1530 1536 1539 1542 1543 1543 1542 1542 1541 1540 1540 1540 1539
1489 1494 1501 1500 1504 1501 1497 1501 1483 1465 1463 1464 1464 1462 1463 1467 1471 1475 1479 1484 1488 1492 1494 1497 1501 1503 1505 1507 1510 1512 1514 1516 1518 1523 1524 1528 1529 1531 1535 1541 1541 1539 1538 1536 1535 1534 1535 1535 1534
1488 1493 1488 1500 1505 1515 1494 1483 1470 1462 1462 1463 1462 1462 1464 1465 1467 1471 1475 1480 1485 1489 1491 1493 1497 1499 1501 1502 1504 1506 1508 1511 1513 1516 1520 1525 1527 1525 1531 1531 1537 1535 1533 1531 1530 1529 1529 1529 1528
1481 1481 1494 1503 1498 1497 1494 1488 1476 1463 1464 1465 1466 1465 1465 1466 1467 1467 1469 1473 1480 1485 1489 1491 1494 1496 1496 1498 1501 1503 1505 1507 1510 1513 1515 1520 1522 1524 1528 1525 1528 1528 1527 1525 1524 1524 1525 1523 1523
1482 1486 1485 1486 1490 1498 1490 1486 1467 1464 1462 1462 1464 1464 1465 1466 1467 1467 1469 1472 1477 1483 1486 1489 1491 1493 1494 1495 1498 1500 1503 1505 1507 1511 1514 1517 1519 1523 1525 1524 1524 1523 1523 1521 1520 1520 1520 1518 1517
1474 1474 1475 1485 1491 1497 1500 1481 1461 1460 1458 1462 1463 1463 1464 1466 1467 1469 1471 1473 1477 1480 1483 1485 1488 1489 1492 1493 1495 1498 1501 1504 1505 1507 1511 1515 1518 1520 1522 1521 1520 1520 1519 1517 1516 1516 1516 1513 1511
Wind_Speed
15 11 13 10 3 3 3 6 3 4 6 1 6 7 12 6 3 2 13 31 32 33 29 25 21 19 18 14 15 17 18 21 27 25 24 24 24 22 17 13 10 12 15 18 21 22 23 23 21
17 16 14 4 3 4 5 5 5 13 3 16 16 20 5 4 6 12 28 24 31 32 30 27 22 20 18 16 17 19 18 19 23 23 21 20 18 15 12 8 15 17 19 21 22 22 23 22 20
17 20 9 5 4 11 5 5 5 16 14 10 5 10 6 8 15 26 21 28 31 31 29 26 23 21 18 18 17 20 17 19 20 19 18 16 14 13 13 18 20 20 21 21 21 21 21 21 19
17 18 5 4 8 5 6 4 10 6 22 4 19 7 8 13 20 16 22 31 32 32 29 26 23 20 18 17 17 21 18 18 20 20 19 19 19 20 21 21 21 21 21 21 21 20 19 18 16
19 8 3 4 6 3 6 1 19 8 19 19 15 4 8 11 13 20 26 30 35 33 29 25 23 19 17 16 19 22 20 19 20 21 20 20 21 22 22 21 21 20 20 20 19 19 17 15 14
12 7 4 6 5 6 5 6 10 4 7 9 14 11 6 10 19 26 22 33 33 33 29 26 23 19 17 19 21 22 21 19 19 20 21 20 21 21 21 20 19 19 18 18 17 17 15 13 11
4 4 9 5 8 4 5 10 6 5 5 4 17 9 15 20 24 26 22 30 32 31 30 26 22 19 18 20 21 22 21 19 17 18 19 19 19 19 19 18 18 17 16 15 15 14 12 10 9
7 2 6 3 8 7 7 6 11 7 3 10 16 6 11 28 19 19 22 25 28 29 29 27 25 21 21 21 20 21 21 20 18 17 17 18 17 17 16 16 15 13 12 12 11 10 10 9 8
8 2 5 5 8 5 6 6 5 6 8 6 7 18 31 31 30 27 31 28 27 28 28 27 25 21 21 20 20 21 21 20 18 17 17 15 15 15 14 13 11 10 9 8 8 7 7 6 6
3 3 5 2 4 3 5 8 10 6 6 6 17 22 38 34 36 37 26 32 34 32 29 26 23 20 19 19 18 19 20 19 17 16 16 14 12 11 10 10 8 7 6 6 6 5 5 5 5
4 2 1 8 14 6 6 7 6 16 2 8 22 34 36 34 36 36 39 32 32 29 29 26 22 18 17 19 16 17 19 19 18 16 15 14 13 10 8 6 6 5 5 5 5 5 5 5 4
8 8 8 9 16 8 4 5 5 4 5 9 22 30 36 32 34 37 35 34 29 27 27 24 21 18 17 17 15 14 17 17 17 17 15 14 11 9 6 5 4 4 5 5 4 4 4 3 3
5 3 11 12 18 15 9 10 2 9 13 15 16 23 30 30 32 34 33 25 25 26 26 24 21 18 18 17 16 14 15 15 16 16 14 12 11 7 4 6 5 4 5 5 4 4 4 3 2
7 10 14 15 14 11 4 5 4 6 12 14 15 18 25 25 26 29 30 35 30 26 24 23 23 18 16 20 18 17 15 14 14 14 12 11 10 7 7 9 7 6 6 6 5 4 3 3 4
15 4 9 11 9 6 13 4 3 4 9 13 12 15 20 21 22 26 30 30 30 28 26 26 23 20 19 17 17 19 17 15 13 12 13 13 12 10 12 11 10 8 7 7 6 6 6 6 6
6 6 4 2 6 4 6 5 2 4 5 11 12 12 17 20 21 22 24 28 27 27 27 27 26 25 24 21 17 18 14 16 13 11 12 13 15 16 16 15 12 11 10 9 9 9 9 9 10
2 3 4 3 3 2 5 3 5 4 9 13 14 14 13 15 21 23 23 25 25 28 28 25 26 26 27 26 25 23 19 18 17 15 14 14 13 16 19 18 15 14 11 10 9 10 11 12 12
6 4 2 4 4 4 2 4 6 7 16 19 21 19 18 17 17 20 25 25 26 26 28 30 28 28 27 27 27 27 26 23 22 21 18 18 17 14 16 18 16 14 11 11 10 10 11 13 13
6 9 8 5 11 8 8 5 8 16 19 21 27 23 22 21 17 17 19 25 28 26 28 29 27 29 29 30 31 30 30 31 27 25 23 22 19 17 12 13 12 11 12 12 13 13 14 15 15
2 6 5 3 8 4 5 7 12 14 17 23 22 31 25 24 25 23 21 23 23 27 28 28 28 27 32 38 36 35 35 34 29 29 29 26 24 21 18 13 12 12 13 14 15 17 19 19 18
3 5 5 3 7 2 3 4 11 13 24 28 25 28 31 30 25 22 25 26 28 28 26 29 30 28 26 27 28 27 33 34 32 32 30 27 26 22 22 19 16 17 14 13 17 22 23 22 22
1 2 7 9 8 4 6 4 4 7 13 13 27 27 28 29 28 30 24 29 31 31 30 28 26 27 27 27 26 28 28 33 35 33 30 29 27 25 24 21 21 21 21 14 19 25 30 27 26
2 2 4 4 4 4 5 1 6 2 8 16 15 30 33 33 30 29 30 27 32 32 34 35 33 30 29 29 29 29 27 25 27 29 31 27 28 28 25 22 20 20 20 20 24 31 31 29 29
3 5 7 6 3 1 6 7 4 5 7 4 12 32 37 38 35 30 28 23 30 31 31 32 32 32 31 30 31 28 28 28 27 26 28 29 27 25 23 21 21 23 24 24 26 29 28 27 26
2 3 3 2 3 3 4 4 8 6 8 7 9 17 34 37 36 35 30 26 25 24 28 32 33 34 32 30 30 31 30 29 29 27 28 28 26 26 23 23 25 27 22 24 25 24 23 23 22
5 8 3 5 3 4 5 6 6 10 14 20 18 8 16 30 33 35 34 28 27 25 27 31 32 30 31 32 32 33 34 34 32 31 28 26 25 23 21 26 24 22 20 20 20 20 21 22 22
4 3 4 4 3 3 3 6 8 6 3 3 8 9 7 7 13 27 34 28 27 24 25 27 28 28 28 27 28 28 30 34 31 28 24 21 20 15 21 22 22 19 19 19 21 22 23 23 23
3 5 3 2 5 4 4 4 5 3 7 4 4 9 8 8 6 9 16 29 26 23 24 27 25 25 23 23 23 21 19 18 19 20 21 22 23 21 22 18 20 21 21 22 23 23 24 24 24
3 2 2 3 4 4 1 5 5 7 7 10 9 13 11 9 7 6 9 17 23 25 25 25 25 24 22 20 20 19 18 17 15 14 15 16 15 16 17 16 18 21 22 22 24 23 24 24 24
4 6 7 4 5 2 3 5 3 1 6 10 10 9 7 4 4 6 6 9 12 19 24 24 24 23 23 22 19 17 18 17 16 15 12 13 14 16 19 21 20 23 25 25 24 24 25 24 23
Wind_Direction
210 223 188 177 160 69 215 239 237 122 152 169 150 141 120 112 139 219 151 164 163 161 159 157 155 149 146 146 134 122 113 129 140 135 131 129 126 121 131 128 126 121 116 112 112 114 115 112 108
205 215 189 179 143 154 244 235 180 129 251 120 101 117 123 103 114 140 150 161 165 159 157 156 154 150 150 142 136 127 116 116 147 147 142 140 140 141 142 131 126 121 117 115 115 118 117 114 109
208 200 172 154 164 205 189 209 210 151 175 223 115 99 101 90 116 148 162 166 164 160 156 155 154 153 148 142 135 131 125 116 122 143 154 157 155 159 136 121 118 118 116 114 119 120 119 116 114
197 197 214 148 201 232 192 148 176 126 206 273 127 74 97 125 143 168 171 165 166 159 158 154 153 152 147 144 140 138 134 125 121 122 127 128 127 123 118 119 117 115 114 117 119 124 123 120 115
197 188 158 167 215 245 243 108 177 167 168 206 110 155 112 149 168 175 169 170 166 159 157 153 153 151 148 148 146 144 139 135 124 121 121 122 123 122 119 118 116 117 121 121 122 126 127 120 116
195 183 131 188 184 202 246 177 122 112 122 137 128 114 106 166 161 157 162 169 166 159 156 155 157 157 153 149 146 149 145 141 132 126 125 126 126 124 123 122 121 121 121 122 123 125 126 125 125
234 138 177 163 162 176 219 194 89 117 138 55 152 122 131 157 154 155 152 169 167 161 157 158 161 161 153 150 148 152 152 145 143 134 131 129 129 129 129 129 127 125 122 123 123 126 128 128 127
209 133 137 169 152 197 198 110 110 109 83 119 135 151 163 152 170 156 164 170 169 165 162 162 163 164 156 152 151 155 159 154 155 146 139 135 135 135 136 135 133 131 129 129 130 133 137 136 133
177 170 152 160 167 156 159 120 96 117 126 110 144 142 154 155 164 178 173 163 166 168 169 168 167 166 162 159 155 158 164 166 158 151 147 144 143 141 140 139 140 141 142 145 148 150 151 152 151
151 160 140 39 316 127 117 118 132 113 110 70 119 138 156 159 167 172 183 172 177 172 173 175 173 168 166 164 159 162 168 172 167 160 158 156 152 151 148 147 148 152 156 162 165 171 177 178 172
182 51 94 32 5 353 133 116 120 132 104 174 152 153 160 164 173 170 174 195 182 172 173 176 177 175 173 169 163 166 173 176 178 176 173 169 163 161 157 168 170 174 183 187 188 191 193 187 194
144 40 64 7 16 27 17 94 68 67 121 160 159 163 168 171 174 172 184 180 177 175 178 177 182 180 180 181 170 170 175 177 185 186 186 183 176 174 195 207 190 195 199 203 198 195 192 200 217
52 353 47 39 21 12 36 49 145 108 124 135 155 168 178 181 179 177 181 184 180 178 177 178 179 182 184 184 180 174 169 175 177 184 190 194 200 202 218 221 216 226 227 212 209 215 214 213 223
109 64 31 38 19 17 5 38 73 124 137 141 160 171 182 182 189 183 179 182 184 181 184 182 182 186 197 194 190 187 175 174 189 198 206 216 217 233 239 240 239 247 241 234 234 242 251 257 260
116 60 18 21 23 2 328 68 76 106 150 153 156 176 184 187 192 197 185 179 182 184 188 193 192 192 201 213 202 198 198 194 198 212 221 228 233 240 244 247 249 252 252 253 252 253 259 265 272
79 60 115 32 31 321 352 182 341 45 343 165 172 177 192 193 196 199 195 194 189 192 197 198 197 199 204 208 206 208 208 217 216 232 226 233 242 244 244 247 253 253 244 244 245 252 260 267 272
73 145 194 83 25 314 35 235 335 313 317 283 183 187 192 197 204 203 201 204 204 205 206 203 200 204 205 201 204 203 211 224 222 232 231 232 252 252 250 248 246 237 236 238 245 256 262 266 269
140 134 178 152 123 189 91 274 324 309 282 272 234 205 206 203 200 201 207 203 206 216 214 213 215 221 213 209 216 208 209 224 224 223 227 236 245 255 249 242 236 228 238 250 256 265 274 276 279
149 137 145 152 180 165 182 197 256 256 276 267 243 226 218 217 220 214 209 212 215 213 213 212 217 225 221 218 222 216 217 221 223 231 238 239 244 243 249 232 225 221 236 248 265 270 273 280 282
217 184 158 189 172 160 145 232 234 220 249 258 256 226 217 218 223 223 221 215 213 217 212 213 223 226 224 227 226 225 218 220 227 231 233 233 231 228 220 222 221 227 238 251 263 271 273 271 271
219 164 189 161 122 51 69 245 211 222 233 250 242 227 222 222 223 223 225 223 219 217 218 224 226 227 226 223 224 227 232 226 222 226 231 231 229 232 227 213 230 235 248 254 278 276 271 269 270
220 261 174 145 134 199 170 266 259 198 233 223 231 236 230 222 233 241 230 227 224 224 223 227 228 230 228 231 228 234 231 226 222 230 230 234 234 235 229 227 234 244 239 237 266 277 268 269 269
226 36 117 127 108 112 180 258 267 229 232 232 228 235 235 234 236 239 236 231 227 224 226 230 232 232 232 230 233 237 240 237 238 232 229 231 227 232 239 239 233 238 244 267 268 266 265 267 265
152 59 52 37 49 225 213 188 272 216 205 226 244 236 235 233 233 232 234 236 232 227 230 231 233 233 234 231 231 234 237 236 231 229 222 220 224 228 227 233 232 241 253 270 266 265 267 266 266
87 62 131 197 202 217 169 162 248 258 250 217 255 260 230 232 231 227 226 224 222 231 231 232 233 234 235 237 241 241 239 237 237 233 227 221 219 224 231 232 242 255 262 264 265 268 269 269 268
183 154 157 177 205 200 148 212 246 239 250 259 264 268 230 230 232 228 229 231 228 229 243 233 233 234 237 239 240 239 239 236 237 239 233 232 231 229 238 248 254 256 258 265 273 272 274 273 272
204 176 168 96 35 43 218 286 301 259 266 244 180 148 146 169 216 237 234 232 235 232 234 235 235 231 234 237 242 245 240 235 235 233 227 232 242 239 255 250 262 271 281 283 281 278 272 271 272
178 154 119 92 185 217 266 269 232 257 214 159 129 137 152 172 188 214 224 225 220 217 219 224 230 237 234 234 235 235 236 232 225 224 223 229 233 230 232 239 257 266 272 275 276 277 275 274 273
160 174 171 143 161 189 214 255 215 246 202 177 182 156 155 158 164 169 187 202 204 211 218 223 226 226 228 231 230 226 222 217 212 218 225 225 229 243 255 266 275 285 283 280 278 277 275 275 273
232 198 184 170 206 200 152 275 308 247 126 150 150 141 140 162 185 191 185 180 199 220 230 229 226 227 232 229 219 217 216 211 208 206 219 238 251 269 276 277 279 282 281 277 276 275 274 272 271